Location: Partizánske
(48.6285°N, 18.3769°E)
Time: 02:00:10
(UTC+01:00)

ISS - Pass Details

Date: 04 December 2021
Orbit: 413 x 422 km, 51.6° (Epoch: 22 January)

Event Time Altitude Azimuth Distance (km) Brightness Sun altitude
Rises 16:14:47 0° 286° (WNW) 2,387 0.8 -4.1°
Reaches altitude 10° 16:16:55 10° 290° (WNW) 1,519 -0.3 -4.4°
Maximum altitude 16:20:17 55° 10° (N) 517 -3.5 -4.8°
Drops below altitude 10° 16:23:37 10° 89° (E) 1,511 -1.5 -5.3°
Enters shadow 16:24:53 - 93° (E) 2,021 -0.8 -5.5°
